owner,sensor,date,latitude,longitude,vertical_datum,wind_speed,wind_to_direction,wind_speed_of_gust,qcFlag 
DISL,ioos:station:DISL:MHPA:1,2016-04-01T00:00:00Z,30.6671,-87.9365,8.5,6.18,159.2,-9999.0,'1111122,1111122,1111122' 
DISL,ioos:station:DISL:MHPA:1,2016-04-01T00:30:00Z,30.6671,-87.9365,8.5,6.44,167.0,-9999.0,'1111122,1111122,1111122' 
DISL,ioos:station:DISL:MHPA:1,2016-04-01T01:00:00Z,30.6671,-87.9365,8.5,6.13,167.0,-9999.0,'1111122,1111122,1111122' 
DISL,ioos:station:DISL:MHPA:1,2016-04-01T01:30:00Z,30.6671,-87.9365,8.5,6.61,167.0,-9999.0,'1111122,1111122,1111122' 
DISL,ioos:station:DISL:MHPA:1,2016-04-01T02:00:00Z,30.6671,-87.9365,8.5,6.02,164.7,-9999.0,'1111122,1111122,1111122' 
DISL,ioos:station:DISL:MHPA:1,2016-04-01T02:30:00Z,30.6671,-87.9365,8.5,5.62,164.5,-9999.0,'1111122,1111122,1111122' 
DISL,ioos:station:DISL:MHPA:1,2016-04-01T03:00:00Z,30.6671,-87.9365,8.5,6.06,163.9,-9999.0,'1111122,1111122,1111122' 
DISL,ioos:station:DISL:MHPA:1,2016-04-01T03:30:00Z,30.6671,-87.9365,8.5,5.57,158.9,-9999.0,'1111122,1111122,1111122' 
DISL,ioos:station:DISL:MHPA:1,2016-04-01T04:00:00Z,30.6671,-87.9365,8.5,5.32,164.3,-9999.0,'1111122,1111122,1111122' 
DISL,ioos:station:DISL:MHPA:1,2016-04-01T04:30:00Z,30.6671,-87.9365,8.5,5.32,157.4,-9999.0,'1111122,1111122,1111122' 
DISL,ioos:station:DISL:MHPA:1,2016-04-01T05:00:00Z,30.6671,-87.9365,8.5,4.97,158.7,-9999.0,'1111122,1111122,1111122' 
DISL,ioos:station:DISL:MHPA:1,2016-04-01T05:30:00Z,30.6671,-87.9365,8.5,4.88,160.7,-9999.0,'1111122,1111122,1111122' 
DISL,ioos:station:DISL:MHPA:1,2016-04-01T06:00:00Z,30.6671,-87.9365,8.5,5.0,161.3,-9999.0,'1111122,1111122,1111122' 
DISL,ioos:station:DISL:MHPA:1,2016-04-01T06:30:00Z,30.6671,-87.9365,8.5,5.27,160.9,-9999.0,'1111122,1111122,1111122' 
DISL,ioos:station:DISL:MHPA:1,2016-04-01T07:00:00Z,30.6671,-87.9365,8.5,4.42,161.9,-9999.0,'1111122,1111122,1111122' 
DISL,ioos:station:DISL:MHPA:1,2016-04-01T07:30:00Z,30.6671,-87.9365,8.5,5.19,158.9,-9999.0,'1111122,1111122,1111122' 
DISL,ioos:station:DISL:MHPA:1,2016-04-01T08:00:00Z,30.6671,-87.9365,8.5,4.96,158.9,-9999.0,'1111122,1111122,1111122' 
DISL,ioos:station:DISL:MHPA:1,2016-04-01T08:30:00Z,30.6671,-87.9365,8.5,4.68,165.9,-9999.0,'1111122,1111122,1111122' 
DISL,ioos:station:DISL:MHPA:1,2016-04-01T09:00:00Z,30.6671,-87.9365,8.5,5.21,157.6,-9999.0,'1111122,1111122,1111122' 
DISL,ioos:station:DISL:MHPA:1,2016-04-01T09:30:00Z,30.6671,-87.9365,8.5,4.9,162.2,-9999.0,'1111122,1111122,1111122' 
DISL,ioos:station:DISL:MHPA:1,2016-04-01T10:00:00Z,30.6671,-87.9365,8.5,4.1,167.7,-9999.0,'1111122,1111122,1111122' 
DISL,ioos:station:DISL:MHPA:1,2016-04-01T10:30:00Z,30.6671,-87.9365,8.5,4.29,154.4,-9999.0,'1111122,1111122,1111122' 
DISL,ioos:station:DISL:MHPA:1,2016-04-01T11:00:00Z,30.6671,-87.9365,8.5,5.17,160.4,-9999.0,'1111122,1111122,1111122' 
DISL,ioos:station:DISL:MHPA:1,2016-04-01T11:30:00Z,30.6671,-87.9365,8.5,4.48,156.5,-9999.0,'1111122,1111122,1111122' 
DISL,ioos:station:DISL:MHPA:1,2016-04-01T12:00:00Z,30.6671,-87.9365,8.5,3.96,157.5,-9999.0,'1111122,1111122,1111122' 
DISL,ioos:station:DISL:MHPA:1,2016-04-01T12:30:00Z,30.6671,-87.9365,8.5,3.26,162.1,-9999.0,'1111122,1111122,1111122' 
DISL,ioos:station:DISL:MHPA:1,2016-04-01T13:00:00Z,30.6671,-87.9365,8.5,4.06,173.5,-9999.0,'1111122,1111122,1111122' 
DISL,ioos:station:DISL:MHPA:1,2016-04-01T13:30:00Z,30.6671,-87.9365,8.5,4.4,173.0,-9999.0,'1111122,1111122,1111122' 
DISL,ioos:station:DISL:MHPA:1,2016-04-01T14:00:00Z,30.6671,-87.9365,8.5,4.44,171.4,-9999.0,'1111122,1111122,1111122' 
DISL,ioos:station:DISL:MHPA:1,2016-04-01T14:30:00Z,30.6671,-87.9365,8.5,6.38,223.0,-9999.0,'1111122,1111122,1111122' 
DISL,ioos:station:DISL:MHPA:1,2016-04-01T15:00:00Z,30.6671,-87.9365,8.5,6.17,261.9,-9999.0,'1111122,1111122,1111122' 
DISL,ioos:station:DISL:MHPA:1,2016-04-01T15:30:00Z,30.6671,-87.9365,8.5,2.95,210.6,-9999.0,'1111122,1111122,1111122' 
DISL,ioos:station:DISL:MHPA:1,2016-04-01T16:00:00Z,30.6671,-87.9365,8.5,6.85,235.0,-9999.0,'1111122,1111122,1111122' 
DISL,ioos:station:DISL:MHPA:1,2016-04-01T16:30:00Z,30.6671,-87.9365,8.5,2.95,297.9,-9999.0,'1111122,1111122,1111122' 
DISL,ioos:station:DISL:MHPA:1,2016-04-01T17:00:00Z,30.6671,-87.9365,8.5,2.04,147.1,-9999.0,'1111122,1111122,1111122' 
DISL,ioos:station:DISL:MHPA:1,2016-04-01T17:30:00Z,30.6671,-87.9365,8.5,2.12,165.8,-9999.0,'1111122,1111122,1111122' 
DISL,ioos:station:DISL:MHPA:1,2016-04-01T18:00:00Z,30.6671,-87.9365,8.5,2.08,284.8,-9999.0,'1111122,1111122,1111122' 
DISL,ioos:station:DISL:MHPA:1,2016-04-01T18:30:00Z,30.6671,-87.9365,8.5,0.95,359.0,-9999.0,'1111122,1111122,1111122' 
DISL,ioos:station:DISL:MHPA:1,2016-04-01T19:00:00Z,30.6671,-87.9365,8.5,0.12,14.65,-9999.0,'1111122,1111122,1111122' 
DISL,ioos:station:DISL:MHPA:1,2016-04-01T19:30:00Z,30.6671,-87.9365,8.5,2.13,340.0,-9999.0,'1111122,1111122,1111122' 
DISL,ioos:station:DISL:MHPA:1,2016-04-01T20:00:00Z,30.6671,-87.9365,8.5,1.4,54.44,-9999.0,'1111122,1111122,1111122' 
DISL,ioos:station:DISL:MHPA:1,2016-04-01T20:30:00Z,30.6671,-87.9365,8.5,2.77,28.18,-9999.0,'1111122,1111122,1111122' 
DISL,ioos:station:DISL:MHPA:1,2016-04-01T21:00:00Z,30.6671,-87.9365,8.5,1.66,357.0,-9999.0,'1111122,1111122,1111122' 
DISL,ioos:station:DISL:MHPA:1,2016-04-01T21:30:00Z,30.6671,-87.9365,8.5,3.22,333.4,-9999.0,'1111122,1111122,1111122' 
DISL,ioos:station:DISL:MHPA:1,2016-04-01T22:00:00Z,30.6671,-87.9365,8.5,1.84,11.69,-9999.0,'1111122,1111122,1111122' 
DISL,ioos:station:DISL:MHPA:1,2016-04-01T22:30:00Z,30.6671,-87.9365,8.5,2.11,4.762,-9999.0,'1111122,1111122,1111122' 
DISL,ioos:station:DISL:MHPA:1,2016-04-01T23:00:00Z,30.6671,-87.9365,8.5,4.17,4.171,-9999.0,'1111122,1111122,1111122' 
DISL,ioos:station:DISL:MHPA:1,2016-04-01T23:30:00Z,30.6671,-87.9365,8.5,5.44,319.0,-9999.0,'1111122,1111122,1111122' 
DISL,ioos:station:DISL:MHPA:1,2016-04-02T00:00:00Z,30.6671,-87.9365,8.5,7.09,325.5,-9999.0,'1111122,1111122,1111122' 
DISL,ioos:station:DISL:MHPA:1,2016-04-02T00:30:00Z,30.6671,-87.9365,8.5,5.08,10.96,-9999.0,'1111122,1111122,1111122' 
DISL,ioos:station:DISL:MHPA:1,2016-04-02T01:00:00Z,30.6671,-87.9365,8.5,3.29,355.4,-9999.0,'1111122,1111122,1111122' 
DISL,ioos:station:DISL:MHPA:1,2016-04-02T01:30:00Z,30.6671,-87.9365,8.5,3.18,345.8,-9999.0,'1111122,1111122,1111122' 
DISL,ioos:station:DISL:MHPA:1,2016-04-02T02:00:00Z,30.6671,-87.9365,8.5,5.86,350.8,-9999.0,'1111122,1111122,1111122' 
DISL,ioos:station:DISL:MHPA:1,2016-04-02T02:30:00Z,30.6671,-87.9365,8.5,4.95,353.1,-9999.0,'1111122,1111122,1111122' 
DISL,ioos:station:DISL:MHPA:1,2016-04-02T03:00:00Z,30.6671,-87.9365,8.5,3.4,354.0,-9999.0,'1111122,1111122,1111122' 
DISL,ioos:station:DISL:MHPA:1,2016-04-02T03:30:00Z,30.6671,-87.9365,8.5,3.25,2.231,-9999.0,'1111122,1111122,1111122' 
DISL,ioos:station:DISL:MHPA:1,2016-04-02T04:00:00Z,30.6671,-87.9365,8.5,3.37,332.0,-9999.0,'1111122,1111122,1111122' 
DISL,ioos:station:DISL:MHPA:1,2016-04-02T04:30:00Z,30.6671,-87.9365,8.5,3.31,348.9,-9999.0,'1111122,1111122,1111122' 
DISL,ioos:station:DISL:MHPA:1,2016-04-02T05:00:00Z,30.6671,-87.9365,8.5,4.76,338.8,-9999.0,'1111122,1111122,1111122' 
DISL,ioos:station:DISL:MHPA:1,2016-04-02T05:30:00Z,30.6671,-87.9365,8.5,3.7,350.7,-9999.0,'1111122,1111122,1111122' 
DISL,ioos:station:DISL:MHPA:1,2016-04-02T06:00:00Z,30.6671,-87.9365,8.5,3.63,354.5,-9999.0,'1111122,1111122,1111122' 
DISL,ioos:station:DISL:MHPA:1,2016-04-02T06:30:00Z,30.6671,-87.9365,8.5,3.12,341.1,-9999.0,'1111122,1111122,1111122' 
DISL,ioos:station:DISL:MHPA:1,2016-04-02T07:00:00Z,30.6671,-87.9365,8.5,4.1,339.5,-9999.0,'1111122,1111122,1111122' 
DISL,ioos:station:DISL:MHPA:1,2016-04-02T07:30:00Z,30.6671,-87.9365,8.5,3.93,340.2,-9999.0,'1111122,1111122,1111122' 
DISL,ioos:station:DISL:MHPA:1,2016-04-02T08:00:00Z,30.6671,-87.9365,8.5,3.88,342.8,-9999.0,'1111122,1111122,1111122' 
DISL,ioos:station:DISL:MHPA:1,2016-04-02T08:30:00Z,30.6671,-87.9365,8.5,4.32,337.9,-9999.0,'1111122,1111122,1111122' 
DISL,ioos:station:DISL:MHPA:1,2016-04-02T09:00:00Z,30.6671,-87.9365,8.5,4.58,334.4,-9999.0,'1111122,1111122,1111122' 
DISL,ioos:station:DISL:MHPA:1,2016-04-02T09:30:00Z,30.6671,-87.9365,8.5,4.74,339.5,-9999.0,'1111122,1111122,1111122' 
DISL,ioos:station:DISL:MHPA:1,2016-04-02T10:00:00Z,30.6671,-87.9365,8.5,5.29,347.9,-9999.0,'1111122,1111122,1111122' 
DISL,ioos:station:DISL:MHPA:1,2016-04-02T10:30:00Z,30.6671,-87.9365,8.5,4.82,343.5,-9999.0,'1111122,1111122,1111122' 
DISL,ioos:station:DISL:MHPA:1,2016-04-02T11:00:00Z,30.6671,-87.9365,8.5,3.61,338.8,-9999.0,'1111122,1111122,1111122' 
DISL,ioos:station:DISL:MHPA:1,2016-04-02T11:30:00Z,30.6671,-87.9365,8.5,4.52,331.4,-9999.0,'1111122,1111122,1111122' 
DISL,ioos:station:DISL:MHPA:1,2016-04-02T12:00:00Z,30.6671,-87.9365,8.5,3.7,332.8,-9999.0,'1111122,1111122,1111122' 
DISL,ioos:station:DISL:MHPA:1,2016-04-02T12:30:00Z,30.6671,-87.9365,8.5,4.35,331.4,-9999.0,'1111122,1111122,1111122' 
DISL,ioos:station:DISL:MHPA:1,2016-04-02T13:00:00Z,30.6671,-87.9365,8.5,4.47,332.7,-9999.0,'1111122,1111122,1111122' 
DISL,ioos:station:DISL:MHPA:1,2016-04-02T13:30:00Z,30.6671,-87.9365,8.5,5.04,335.2,-9999.0,'1111122,1111122,1111122' 
DISL,ioos:station:DISL:MHPA:1,2016-04-02T14:00:00Z,30.6671,-87.9365,8.5,4.84,346.8,-9999.0,'1111122,1111122,1111122' 
DISL,ioos:station:DISL:MHPA:1,2016-04-02T14:30:00Z,30.6671,-87.9365,8.5,5.97,341.6,-9999.0,'1111122,1111122,1111122' 
DISL,ioos:station:DISL:MHPA:1,2016-04-02T15:00:00Z,30.6671,-87.9365,8.5,5.43,342.7,-9999.0,'1111122,1111122,1111122' 
DISL,ioos:station:DISL:MHPA:1,2016-04-02T15:30:00Z,30.6671,-87.9365,8.5,6.34,344.5,-9999.0,'1111122,1111122,1111122' 
DISL,ioos:station:DISL:MHPA:1,2016-04-02T16:00:00Z,30.6671,-87.9365,8.5,6.43,349.0,-9999.0,'1111122,1111122,1111122' 
DISL,ioos:station:DISL:MHPA:1,2016-04-02T16:30:00Z,30.6671,-87.9365,8.5,5.51,350.3,-9999.0,'1111122,1111122,1111122' 
DISL,ioos:station:DISL:MHPA:1,2016-04-02T17:00:00Z,30.6671,-87.9365,8.5,5.13,333.5,-9999.0,'1111122,1111122,1111122' 
DISL,ioos:station:DISL:MHPA:1,2016-04-02T17:30:00Z,30.6671,-87.9365,8.5,5.63,331.2,-9999.0,'1111122,1111122,1111122' 
DISL,ioos:station:DISL:MHPA:1,2016-04-02T18:00:00Z,30.6671,-87.9365,8.5,5.39,323.6,-9999.0,'1111122,1111122,1111122' 
DISL,ioos:station:DISL:MHPA:1,2016-04-02T18:30:00Z,30.6671,-87.9365,8.5,5.35,323.5,-9999.0,'1111122,1111122,1111122' 
DISL,ioos:station:DISL:MHPA:1,2016-04-02T19:00:00Z,30.6671,-87.9365,8.5,5.99,325.8,-9999.0,'1111122,1111122,1111122' 
DISL,ioos:station:DISL:MHPA:1,2016-04-02T19:30:00Z,30.6671,-87.9365,8.5,4.52,328.6,-9999.0,'1111122,1111122,1111122' 
DISL,ioos:station:DISL:MHPA:1,2016-04-02T20:00:00Z,30.6671,-87.9365,8.5,4.85,330.2,-9999.0,'1111122,1111122,1111122' 
DISL,ioos:station:DISL:MHPA:1,2016-04-02T20:30:00Z,30.6671,-87.9365,8.5,4.49,332.4,-9999.0,'1111122,1111122,1111122' 
DISL,ioos:station:DISL:MHPA:1,2016-04-02T21:00:00Z,30.6671,-87.9365,8.5,4.42,328.1,-9999.0,'1111122,1111122,1111122' 
DISL,ioos:station:DISL:MHPA:1,2016-04-02T21:30:00Z,30.6671,-87.9365,8.5,5.39,317.7,-9999.0,'1111122,1111122,1111122' 
DISL,ioos:station:DISL:MHPA:1,2016-04-02T22:00:00Z,30.6671,-87.9365,8.5,5.75,322.2,-9999.0,'1111122,1111122,1111122' 
DISL,ioos:station:DISL:MHPA:1,2016-04-02T22:30:00Z,30.6671,-87.9365,8.5,4.75,330.7,-9999.0,'1111122,1111122,1111122' 
DISL,ioos:station:DISL:MHPA:1,2016-04-02T23:00:00Z,30.6671,-87.9365,8.5,4.68,339.5,-9999.0,'1111122,1111122,1111122' 
DISL,ioos:station:DISL:MHPA:1,2016-04-02T23:30:00Z,30.6671,-87.9365,8.5,4.96,328.8,-9999.0,'1111122,1111122,1111122' 
DISL,ioos:station:DISL:MHPA:1,2016-04-03T00:00:00Z,30.6671,-87.9365,8.5,3.12,334.1,-9999.0,'1111122,1111122,1111122' 
DISL,ioos:station:DISL:MHPA:1,2016-04-03T00:30:00Z,30.6671,-87.9365,8.5,2.8,332.4,-9999.0,'1111122,1111122,1111122' 
DISL,ioos:station:DISL:MHPA:1,2016-04-03T01:00:00Z,30.6671,-87.9365,8.5,3.07,332.3,-9999.0,'1111122,1111122,1111122' 
DISL,ioos:station:DISL:MHPA:1,2016-04-03T01:30:00Z,30.6671,-87.9365,8.5,2.64,335.2,-9999.0,'1111122,1111122,1111122' 
DISL,ioos:station:DISL:MHPA:1,2016-04-03T02:00:00Z,30.6671,-87.9365,8.5,2.98,329.1,-9999.0,'1111122,1111122,1111122' 
DISL,ioos:station:DISL:MHPA:1,2016-04-03T02:30:00Z,30.6671,-87.9365,8.5,3.17,328.0,-9999.0,'1111122,1111122,1111122' 
DISL,ioos:station:DISL:MHPA:1,2016-04-03T03:00:00Z,30.6671,-87.9365,8.5,2.51,331.1,-9999.0,'1111122,1111122,1111122' 
DISL,ioos:station:DISL:MHPA:1,2016-04-03T03:30:00Z,30.6671,-87.9365,8.5,2.33,336.7,-9999.0,'1111122,1111122,1111122' 
DISL,ioos:station:DISL:MHPA:1,2016-04-03T04:00:00Z,30.6671,-87.9365,8.5,2.12,341.2,-9999.0,'1111122,1111122,1111122' 
DISL,ioos:station:DISL:MHPA:1,2016-04-03T04:30:00Z,30.6671,-87.9365,8.5,2.07,339.0,-9999.0,'1111122,1111122,1111122' 
DISL,ioos:station:DISL:MHPA:1,2016-04-03T05:00:00Z,30.6671,-87.9365,8.5,2.3,333.7,-9999.0,'1111122,1111122,1111122' 
DISL,ioos:station:DISL:MHPA:1,2016-04-03T05:30:00Z,30.6671,-87.9365,8.5,2.51,338.1,-9999.0,'1111122,1111122,1111122' 
DISL,ioos:station:DISL:MHPA:1,2016-04-03T06:00:00Z,30.6671,-87.9365,8.5,2.6,327.2,-9999.0,'1111122,1111122,1111122' 
DISL,ioos:station:DISL:MHPA:1,2016-04-03T06:30:00Z,30.6671,-87.9365,8.5,2.31,331.5,-9999.0,'1111122,1111122,1111122' 
DISL,ioos:station:DISL:MHPA:1,2016-04-03T07:00:00Z,30.6671,-87.9365,8.5,2.09,337.3,-9999.0,'1111122,1111122,1111122' 
DISL,ioos:station:DISL:MHPA:1,2016-04-03T07:30:00Z,30.6671,-87.9365,8.5,1.29,344.6,-9999.0,'1111122,1111122,1111122' 
DISL,ioos:station:DISL:MHPA:1,2016-04-03T08:00:00Z,30.6671,-87.9365,8.5,2.28,329.6,-9999.0,'1111122,1111122,1111122' 
DISL,ioos:station:DISL:MHPA:1,2016-04-03T08:30:00Z,30.6671,-87.9365,8.5,1.96,338.9,-9999.0,'1111122,1111122,1111122' 
DISL,ioos:station:DISL:MHPA:1,2016-04-03T09:00:00Z,30.6671,-87.9365,8.5,2.1,339.1,-9999.0,'1111122,1111122,1111122' 
DISL,ioos:station:DISL:MHPA:1,2016-04-03T09:30:00Z,30.6671,-87.9365,8.5,1.13,350.4,-9999.0,'1111122,1111122,1111122' 
DISL,ioos:station:DISL:MHPA:1,2016-04-03T10:00:00Z,30.6671,-87.9365,8.5,1.1,0.56,-9999.0,'1111122,1111122,1111122' 
DISL,ioos:station:DISL:MHPA:1,2016-04-03T10:30:00Z,30.6671,-87.9365,8.5,0.94,358.0,-9999.0,'1111122,1111122,1111122' 
DISL,ioos:station:DISL:MHPA:1,2016-04-03T11:00:00Z,30.6671,-87.9365,8.5,0.63,13.08,-9999.0,'1111122,1111122,1111122' 
DISL,ioos:station:DISL:MHPA:1,2016-04-03T11:30:00Z,30.6671,-87.9365,8.5,0.36,14.31,-9999.0,'1111122,1111122,1111122' 
DISL,ioos:station:DISL:MHPA:1,2016-04-03T12:00:00Z,30.6671,-87.9365,8.5,0.68,3.505,-9999.0,'1111122,1111122,1111122' 
DISL,ioos:station:DISL:MHPA:1,2016-04-03T12:30:00Z,30.6671,-87.9365,8.5,0.58,2.822,-9999.0,'1111122,1111122,1111122' 
DISL,ioos:station:DISL:MHPA:1,2016-04-03T13:00:00Z,30.6671,-87.9365,8.5,1.0,354.0,-9999.0,'1111122,1111122,1111122' 
DISL,ioos:station:DISL:MHPA:1,2016-04-03T13:30:00Z,30.6671,-87.9365,8.5,1.5,343.7,-9999.0,'1111122,1111122,1111122' 
DISL,ioos:station:DISL:MHPA:1,2016-04-03T14:00:00Z,30.6671,-87.9365,8.5,2.82,336.2,-9999.0,'1111122,1111122,1111122' 
DISL,ioos:station:DISL:MHPA:1,2016-04-03T14:30:00Z,30.6671,-87.9365,8.5,3.4,343.7,-9999.0,'1111122,1111122,1111122' 
DISL,ioos:station:DISL:MHPA:1,2016-04-03T15:00:00Z,30.6671,-87.9365,8.5,3.23,353.9,-9999.0,'1111122,1111122,1111122' 
DISL,ioos:station:DISL:MHPA:1,2016-04-03T15:30:00Z,30.6671,-87.9365,8.5,3.12,9.64,-9999.0,'1111122,1111122,1111122' 
DISL,ioos:station:DISL:MHPA:1,2016-04-03T16:00:00Z,30.6671,-87.9365,8.5,3.06,13.2,-9999.0,'1111122,1111122,1111122' 
DISL,ioos:station:DISL:MHPA:1,2016-04-03T16:30:00Z,30.6671,-87.9365,8.5,2.11,359.4,-9999.0,'1111122,1111122,1111122' 
DISL,ioos:station:DISL:MHPA:1,2016-04-03T17:00:00Z,30.6671,-87.9365,8.5,3.55,328.1,-9999.0,'1111122,1111122,1111122' 
DISL,ioos:station:DISL:MHPA:1,2016-04-03T17:30:00Z,30.6671,-87.9365,8.5,3.53,334.2,-9999.0,'1111122,1111122,1111122' 
DISL,ioos:station:DISL:MHPA:1,2016-04-03T18:00:00Z,30.6671,-87.9365,8.5,3.41,342.1,-9999.0,'1111122,1111122,1111122' 
DISL,ioos:station:DISL:MHPA:1,2016-04-03T18:30:00Z,30.6671,-87.9365,8.5,3.19,319.2,-9999.0,'1111122,1111122,1111122' 
DISL,ioos:station:DISL:MHPA:1,2016-04-03T19:00:00Z,30.6671,-87.9365,8.5,3.68,307.3,-9999.0,'1111122,1111122,1111122' 
DISL,ioos:station:DISL:MHPA:1,2016-04-03T19:30:00Z,30.6671,-87.9365,8.5,3.37,282.2,-9999.0,'1111122,1111122,1111122' 
DISL,ioos:station:DISL:MHPA:1,2016-04-03T20:00:00Z,30.6671,-87.9365,8.5,1.85,323.3,-9999.0,'1111122,1111122,1111122' 
DISL,ioos:station:DISL:MHPA:1,2016-04-03T20:30:00Z,30.6671,-87.9365,8.5,1.69,5.613,-9999.0,'1111122,1111122,1111122' 
DISL,ioos:station:DISL:MHPA:1,2016-04-03T21:00:00Z,30.6671,-87.9365,8.5,1.71,203.4,-9999.0,'1111122,1111122,1111122' 
DISL,ioos:station:DISL:MHPA:1,2016-04-03T21:30:00Z,30.6671,-87.9365,8.5,3.62,188.7,-9999.0,'1111122,1111122,1111122' 
DISL,ioos:station:DISL:MHPA:1,2016-04-03T22:00:00Z,30.6671,-87.9365,8.5,3.36,207.7,-9999.0,'1111122,1111122,1111122' 
DISL,ioos:station:DISL:MHPA:1,2016-04-03T22:30:00Z,30.6671,-87.9365,8.5,3.67,201.4,-9999.0,'1111122,1111122,1111122' 
DISL,ioos:station:DISL:MHPA:1,2016-04-03T23:00:00Z,30.6671,-87.9365,8.5,3.93,197.3,-9999.0,'1111122,1111122,1111122' 
DISL,ioos:station:DISL:MHPA:1,2016-04-03T23:30:00Z,30.6671,-87.9365,8.5,4.51,180.9,-9999.0,'1111122,1111122,1111122' 
DISL,ioos:station:DISL:MHPA:1,2016-04-04T00:00:00Z,30.6671,-87.9365,8.5,4.45,184.3,-9999.0,'1111122,1111122,1111122' 
DISL,ioos:station:DISL:MHPA:1,2016-04-04T00:30:00Z,30.6671,-87.9365,8.5,4.88,201.3,-9999.0,'1111122,1111122,1111122' 
DISL,ioos:station:DISL:MHPA:1,2016-04-04T01:00:00Z,30.6671,-87.9365,8.5,3.83,206.6,-9999.0,'1111122,1111122,1111122' 
DISL,ioos:station:DISL:MHPA:1,2016-04-04T01:30:00Z,30.6671,-87.9365,8.5,4.38,220.8,-9999.0,'1111122,1111122,1111122' 
DISL,ioos:station:DISL:MHPA:1,2016-04-04T02:00:00Z,30.6671,-87.9365,8.5,4.07,231.7,-9999.0,'1111122,1111122,1111122' 
DISL,ioos:station:DISL:MHPA:1,2016-04-04T02:30:00Z,30.6671,-87.9365,8.5,4.41,242.4,-9999.0,'1111122,1111122,1111122' 
DISL,ioos:station:DISL:MHPA:1,2016-04-04T03:00:00Z,30.6671,-87.9365,8.5,4.03,254.6,-9999.0,'1111122,1111122,1111122' 
DISL,ioos:station:DISL:MHPA:1,2016-04-04T03:30:00Z,30.6671,-87.9365,8.5,2.74,268.4,-9999.0,'1111122,1111122,1111122' 
DISL,ioos:station:DISL:MHPA:1,2016-04-04T04:00:00Z,30.6671,-87.9365,8.5,0.53,73.31,-9999.0,'1111122,1111122,1111122' 
DISL,ioos:station:DISL:MHPA:1,2016-04-04T04:30:00Z,30.6671,-87.9365,8.5,0.82,70.8,-9999.0,'1111122,1111122,1111122' 
DISL,ioos:station:DISL:MHPA:1,2016-04-04T05:00:00Z,30.6671,-87.9365,8.5,2.8,221.6,-9999.0,'1111122,1111122,1111122' 
DISL,ioos:station:DISL:MHPA:1,2016-04-04T05:30:00Z,30.6671,-87.9365,8.5,2.02,215.8,-9999.0,'1111122,1111122,1111122' 
DISL,ioos:station:DISL:MHPA:1,2016-04-04T06:00:00Z,30.6671,-87.9365,8.5,1.29,253.3,-9999.0,'1111122,1111122,1111122' 
DISL,ioos:station:DISL:MHPA:1,2016-04-04T06:30:00Z,30.6671,-87.9365,8.5,1.49,269.0,-9999.0,'1111122,1111122,1111122' 
DISL,ioos:station:DISL:MHPA:1,2016-04-04T07:00:00Z,30.6671,-87.9365,8.5,1.12,66.41,-9999.0,'1111122,1111122,1111122' 
DISL,ioos:station:DISL:MHPA:1,2016-04-04T07:30:00Z,30.6671,-87.9365,8.5,2.45,277.4,-9999.0,'1111122,1111122,1111122' 
DISL,ioos:station:DISL:MHPA:1,2016-04-04T08:00:00Z,30.6671,-87.9365,8.5,3.04,283.8,-9999.0,'1111122,1111122,1111122' 
DISL,ioos:station:DISL:MHPA:1,2016-04-04T08:30:00Z,30.6671,-87.9365,8.5,5.3,278.4,-9999.0,'1111122,1111122,1111122' 
DISL,ioos:station:DISL:MHPA:1,2016-04-04T09:00:00Z,30.6671,-87.9365,8.5,2.56,313.4,-9999.0,'1111122,1111122,1111122' 
DISL,ioos:station:DISL:MHPA:1,2016-04-04T09:30:00Z,30.6671,-87.9365,8.5,1.36,356.5,-9999.0,'1111122,1111122,1111122' 
DISL,ioos:station:DISL:MHPA:1,2016-04-04T10:00:00Z,30.6671,-87.9365,8.5,3.62,309.9,-9999.0,'1111122,1111122,1111122' 
DISL,ioos:station:DISL:MHPA:1,2016-04-04T10:30:00Z,30.6671,-87.9365,8.5,1.17,1.876,-9999.0,'1111122,1111122,1111122' 
DISL,ioos:station:DISL:MHPA:1,2016-04-04T11:00:00Z,30.6671,-87.9365,8.5,1.2,349.4,-9999.0,'1111122,1111122,1111122' 
DISL,ioos:station:DISL:MHPA:1,2016-04-04T11:30:00Z,30.6671,-87.9365,8.5,1.86,314.6,-9999.0,'1111122,1111122,1111122' 
DISL,ioos:station:DISL:MHPA:1,2016-04-04T12:00:00Z,30.6671,-87.9365,8.5,1.06,12.74,-9999.0,'1111122,1111122,1111122' 
DISL,ioos:station:DISL:MHPA:1,2016-04-04T12:30:00Z,30.6671,-87.9365,8.5,1.55,337.0,-9999.0,'1111122,1111122,1111122' 
DISL,ioos:station:DISL:MHPA:1,2016-04-04T13:00:00Z,30.6671,-87.9365,8.5,1.77,351.6,-9999.0,'1111122,1111122,1111122' 
DISL,ioos:station:DISL:MHPA:1,2016-04-04T13:30:00Z,30.6671,-87.9365,8.5,1.73,342.8,-9999.0,'1111122,1111122,1111122' 
DISL,ioos:station:DISL:MHPA:1,2016-04-04T14:00:00Z,30.6671,-87.9365,8.5,2.41,335.1,-9999.0,'1111122,1111122,1111122' 
DISL,ioos:station:DISL:MHPA:1,2016-04-04T14:30:00Z,30.6671,-87.9365,8.5,1.6,355.3,-9999.0,'1111122,1111122,1111122' 
DISL,ioos:station:DISL:MHPA:1,2016-04-04T15:00:00Z,30.6671,-87.9365,8.5,2.35,325.2,-9999.0,'1111122,1111122,1111122' 
DISL,ioos:station:DISL:MHPA:1,2016-04-04T15:30:00Z,30.6671,-87.9365,8.5,2.81,342.1,-9999.0,'1111122,1111122,1111122' 
DISL,ioos:station:DISL:MHPA:1,2016-04-04T16:00:00Z,30.6671,-87.9365,8.5,2.63,310.8,-9999.0,'1111122,1111122,1111122' 
DISL,ioos:station:DISL:MHPA:1,2016-04-04T16:30:00Z,30.6671,-87.9365,8.5,2.38,315.5,-9999.0,'1111122,1111122,1111122' 
DISL,ioos:station:DISL:MHPA:1,2016-04-04T17:00:00Z,30.6671,-87.9365,8.5,2.85,311.7,-9999.0,'1111122,1111122,1111122' 
DISL,ioos:station:DISL:MHPA:1,2016-04-04T17:30:00Z,30.6671,-87.9365,8.5,1.82,303.5,-9999.0,'1111122,1111122,1111122' 
DISL,ioos:station:DISL:MHPA:1,2016-04-04T18:00:00Z,30.6671,-87.9365,8.5,3.19,300.0,-9999.0,'1111122,1111122,1111122' 
DISL,ioos:station:DISL:MHPA:1,2016-04-04T18:30:00Z,30.6671,-87.9365,8.5,2.28,310.5,-9999.0,'1111122,1111122,1111122' 
DISL,ioos:station:DISL:MHPA:1,2016-04-04T19:00:00Z,30.6671,-87.9365,8.5,3.03,198.5,-9999.0,'1111122,1111122,1111122' 
DISL,ioos:station:DISL:MHPA:1,2016-04-04T19:30:00Z,30.6671,-87.9365,8.5,3.8,182.2,-9999.0,'1111122,1111122,1111122' 
DISL,ioos:station:DISL:MHPA:1,2016-04-04T20:00:00Z,30.6671,-87.9365,8.5,3.72,182.5,-9999.0,'1111122,1111122,1111122' 
DISL,ioos:station:DISL:MHPA:1,2016-04-04T20:30:00Z,30.6671,-87.9365,8.5,4.15,180.2,-9999.0,'1111122,1111122,1111122' 
DISL,ioos:station:DISL:MHPA:1,2016-04-04T21:00:00Z,30.6671,-87.9365,8.5,5.86,181.2,-9999.0,'1111122,1111122,1111122' 
DISL,ioos:station:DISL:MHPA:1,2016-04-04T21:30:00Z,30.6671,-87.9365,8.5,6.53,178.2,-9999.0,'1111122,1111122,1111122' 
DISL,ioos:station:DISL:MHPA:1,2016-04-04T22:00:00Z,30.6671,-87.9365,8.5,6.9,173.4,-9999.0,'1111122,1111122,1111122' 
DISL,ioos:station:DISL:MHPA:1,2016-04-04T22:30:00Z,30.6671,-87.9365,8.5,6.48,169.3,-9999.0,'1111122,1111122,1111122' 
DISL,ioos:station:DISL:MHPA:1,2016-04-04T23:00:00Z,30.6671,-87.9365,8.5,5.47,165.4,-9999.0,'1111122,1111122,1111122' 
DISL,ioos:station:DISL:MHPA:1,2016-04-04T23:30:00Z,30.6671,-87.9365,8.5,5.63,186.0,-9999.0,'1111122,1111122,1111122' 
DISL,ioos:station:DISL:MHPA:1,2016-04-05T00:00:00Z,30.6671,-87.9365,8.5,4.74,188.8,-9999.0,'1111122,1111122,1111122' 
DISL,ioos:station:DISL:MHPA:1,2016-04-05T00:30:00Z,30.6671,-87.9365,8.5,4.53,218.2,-9999.0,'1111122,1111122,1111122' 
DISL,ioos:station:DISL:MHPA:1,2016-04-05T01:00:00Z,30.6671,-87.9365,8.5,4.26,232.7,-9999.0,'1111122,1111122,1111122' 
DISL,ioos:station:DISL:MHPA:1,2016-04-05T01:30:00Z,30.6671,-87.9365,8.5,2.39,200.7,-9999.0,'1111122,1111122,1111122' 
DISL,ioos:station:DISL:MHPA:1,2016-04-05T02:00:00Z,30.6671,-87.9365,8.5,2.1,155.3,-9999.0,'1111122,1111122,1111122' 
DISL,ioos:station:DISL:MHPA:1,2016-04-05T02:30:00Z,30.6671,-87.9365,8.5,2.7,179.0,-9999.0,'1111122,1111122,1111122' 
DISL,ioos:station:DISL:MHPA:1,2016-04-05T03:00:00Z,30.6671,-87.9365,8.5,2.89,222.3,-9999.0,'1111122,1111122,1111122' 
DISL,ioos:station:DISL:MHPA:1,2016-04-05T03:30:00Z,30.6671,-87.9365,8.5,4.05,239.0,-9999.0,'1111122,1111122,1111122' 
DISL,ioos:station:DISL:MHPA:1,2016-04-05T04:00:00Z,30.6671,-87.9365,8.5,2.15,225.1,-9999.0,'1111122,1111122,1111122' 
DISL,ioos:station:DISL:MHPA:1,2016-04-05T04:30:00Z,30.6671,-87.9365,8.5,1.71,206.1,-9999.0,'1111122,1111122,1111122' 